(231655) = 2006 EQ57 = 2009 WW164 = 2008 RS54

Discovered at Kitt Peak on 2009-11-21 by Spacewatch.

Orbit

Orbit type: Main Belt

Note: WebGL enabled browser required.

epoch2023-02-25.0
epoch JD2460000.5
perihelion date2019-06-22.40370
perihelion JD2458656.90370
argument of perihelion (°)59.82898
ascending node (°)260.55841
inclination (°)3.98965
eccentricity0.1325077
perihelion distance (AU)2.7159464
Tisserand w.r.t. Jupiter3.2
ΔV w.r.t. Earth (km/sec)10.4
semimajor axis (AU)3.1308017
mean anomaly (°)239.05031
mean daily motion (°/day)0.17791830
aphelion distance (AU)3.546
period (years)5.54
P-vector [x]0.76830624
P-vector [y]-0.60859191
P-vector [z]-0.19829628
Q-vector [x]0.63639213
Q-vector [y]0.69307725
Q-vector [z]0.33859857
absolute magnitude15.62
phase slope0.15
uncertainty0
referenceMPO 745323
observations used391
oppositions17
arc length (days)8081
first opposition used2001
last opposition used2023
residual rms (arc-secs)0.75
perturbers coarse indicatorM-v
perturbers precise indicator003Ek
first observation date used2001-03-26.0
last observation date used2023-05-11.0
computer nameMPCLINUX
JD of orbit computation2456966.910206
perihelion JD uncertainty (days)1.2227E-04
argument of perihelion uncertainty (°)9.2048E-05
ascending node uncertainty (°)8.9559E-05
inclination uncertainty (°)5.4716E-06
eccentricity uncertainty 5.3076E-08
perihelion distance uncertainty (AU)1.6055E-07
Minimum Orbit Intersection Distances (in AU)
for orbit epoch: 2460000.5, reference: E2023-JB1
Mercury2.29864
Venus1.99406
Earth1.70456
Mars1.33711
Jupiter1.74737
Saturn5.61561
Uranus14.9402
Neptune26.722

Observations

403 total observations over interval: 2001 03 26.37865 – 2023 05 11.330689
These data are available for download (format description).

Date (UT) J2000 RA J2000 Dec Magn Location Ref
2001 03 26.37865 13 16 42.78 -13 31 14.8 21.3 R 695 – Kitt Peak MPS 306821
2001 03 26.45830 13 16 39.43 -13 30 55.3   695 – Kitt Peak MPS 306821
2002 06 11.42216 19 36 09.96 -19 30 49.4 20.7   644 – Palomar Mountain/NEAT MPS 306821
2002 06 11.43277 19 36 09.63 -19 30 48.6 20.3   644 – Palomar Mountain/NEAT MPS 306821
2002 06 11.44334 19 36 09.33 -19 30 48.0 19.9   644 – Palomar Mountain/NEAT MPS 306821
2006 02 06.44767 11 22 37.77 -01 38 14.8   691 – Steward Observatory, Kitt Peak-Spacewatch MPS 306821
2006 02 06.46503 11 22 37.25 -01 38 12.8   691 – Steward Observatory, Kitt Peak-Spacewatch MPS 306821
2006 02 06.48235 11 22 36.76 -01 38 10.7   691 – Steward Observatory, Kitt Peak-Spacewatch MPS 306821
2006 03 05.22845 11 05 25.01 -00 09 34.0 20.5 V 691 – Steward Observatory, Kitt Peak-Spacewatch MPS 166441
2006 03 05.24583 11 05 24.23 -00 09 29.7 20.5 V 691 – Steward Observatory, Kitt Peak-Spacewatch MPS 166441
2006 03 05.26313 11 05 23.42 -00 09 25.0 20.5 V 691 – Steward Observatory, Kitt Peak-Spacewatch MPS 166441
2006 03 09.22010 11 02 28.51 +00 08 23.7   691 – Steward Observatory, Kitt Peak-Spacewatch MPS 166441
2006 03 09.23743 11 02 27.72 +00 08 28.8   691 – Steward Observatory, Kitt Peak-Spacewatch MPS 166441
2006 03 09.25477 11 02 26.93 +00 08 33.5   691 – Steward Observatory, Kitt Peak-Spacewatch MPS 166441
2007 05 12.66917 15 41 22.58 -22 13 18.1 20.7 R D35 – Lulin Observatory MPS 306821
2007 05 12.68627 15 41 21.68 -22 13 14.4 20.8 R D35 – Lulin Observatory MPS 306821
2007 05 12.69838 15 41 21.08 -22 13 11.6 21.2 R D35 – Lulin Observatory MPS 306821
2007 06 15.22765 15 16 38.01 -20 03 31.4 20.3 V 691 – Steward Observatory, Kitt Peak-Spacewatch MPS 306821
2007 06 15.24881 15 16 37.34 -20 03 27.1 20.4 V 691 – Steward Observatory, Kitt Peak-Spacewatch MPS 306821
2007 06 15.26652 15 16 36.74 -20 03 23.0 20.1 V 691 – Steward Observatory, Kitt Peak-Spacewatch MPS 306821
2008 09 03.19360 22 51 04.44 -00 32 24.2 19.5 V 691 – Steward Observatory, Kitt Peak-Spacewatch MPS 256002
2008 09 03.21117 22 51 03.63 -00 32 28.8 19.4 V 691 – Steward Observatory, Kitt Peak-Spacewatch MPS 256002
2008 09 03.23220 22 51 02.65 -00 32 34.2 19.4 V 691 – Steward Observatory, Kitt Peak-Spacewatch MPS 256002
2008 09 06.18988 22 48 50.58 -00 45 39.8   691 – Steward Observatory, Kitt Peak-Spacewatch MPS 256002
2008 09 06.20747 22 48 49.74 -00 45 44.9   691 – Steward Observatory, Kitt Peak-Spacewatch MPS 256002
2008 09 06.22506 22 48 48.97 -00 45 49.3   691 – Steward Observatory, Kitt Peak-Spacewatch MPS 256002
2008 09 07.29520 22 48 01.26 -00 50 39.3 18.6 V 703 – Catalina Sky Survey MPS 256476
2008 09 07.30166 22 48 01.04 -00 50 41.5 18.8 V 703 – Catalina Sky Survey MPS 256476
2008 09 07.30814 22 48 00.79 -00 50 43.3 19.1 V 703 – Catalina Sky Survey MPS 256476
2008 09 07.31465 22 48 00.43 -00 50 44.0 19.3 V 703 – Catalina Sky Survey MPS 256476
2008 09 22.22630 22 37 54.26 -02 00 02.8   704 – Lincoln Laboratory ETS, New Mexico MPS 406999
2008 09 22.25041 22 37 53.33 -02 00 10.5   704 – Lincoln Laboratory ETS, New Mexico MPS 406999
2008 09 22.26257 22 37 52.97 -02 00 13.6   704 – Lincoln Laboratory ETS, New Mexico MPS 406999
2008 09 22.27462 22 37 52.57 -02 00 18.6   704 – Lincoln Laboratory ETS, New Mexico MPS 406999
2008 10 07.22285 22 31 10.81 -03 00 39.1 19.7 V G96 – Mt. Lemmon Survey MPS 306821
2008 10 07.23337 22 31 10.59 -03 00 41.7 19.8 V G96 – Mt. Lemmon Survey MPS 306821
2008 10 07.24383 22 31 10.41 -03 00 43.8 20.0 V G96 – Mt. Lemmon Survey MPS 306821
2008 10 07.25440 22 31 10.23 -03 00 45.8 19.6 V G96 – Mt. Lemmon Survey MPS 306821
2009 09 21.47786 05 16 06.46 +24 31 15.5 21.5 V 291 – LPL/Spacewatch II MPS 306821
2009 09 21.49228 05 16 06.91 +24 31 15.6 21.8 V 291 – LPL/Spacewatch II MPS 306821
2009 09 21.50432 05 16 07.26 +24 31 15.7 21.5 V 291 – LPL/Spacewatch II MPS 306821
2009 11 08.40833 05 14 31.56 +24 05 20.6 20.2 V G96 – Mt. Lemmon Survey MPS 305425
2009 11 08.41475 05 14 31.34 +24 05 20.1 20.0 V G96 – Mt. Lemmon Survey MPS 305425
2009 11 08.42064 05 14 31.09 +24 05 19.9 19.7 V G96 – Mt. Lemmon Survey MPS 305425
2009 11 08.42734 05 14 30.87 +24 05 19.2 19.9 V G96 – Mt. Lemmon Survey MPS 305425
2009 11 17.31917 05 08 29.10 +23 51 23.4 20.4 V 691 – Steward Observatory, Kitt Peak-Spacewatch MPS 305425
2009 11 17.33689 05 08 28.29 +23 51 21.6 20.3 V 691 – Steward Observatory, Kitt Peak-Spacewatch MPS 305425
2009 11 17.35460 05 08 27.50 +23 51 21.2 19.8 V 691 – Steward Observatory, Kitt Peak-Spacewatch MPS 305425
2009 11 21.33716 05 05 20.30 +23 44 00.2   691 – Steward Observatory, Kitt Peak-Spacewatch MPS 305425
2009 11 21.35493 05 05 19.36 +23 43 59.3   691 – Steward Observatory, Kitt Peak-Spacewatch MPS 305425
2009 11 21.37269 05 05 18.53 +23 43 56.0   691 – Steward Observatory, Kitt Peak-Spacewatch MPS 305426
2009 11 25.33422 05 02 01.01 +23 36 00.3 20.1 V 691 – Steward Observatory, Kitt Peak-Spacewatch MPS 305426
2009 11 25.35202 05 02 00.12 +23 35 57.8 20.2 V 691 – Steward Observatory, Kitt Peak-Spacewatch MPS 305426
2009 11 25.37331 05 01 58.97 +23 35 55.0 20.1 V 691 – Steward Observatory, Kitt Peak-Spacewatch MPS 305426
2009 12 10.20814 04 48 55.26 +23 01 35.8 19.6 V G96 – Mt. Lemmon Survey MPS 307451
2009 12 10.21627 04 48 54.82 +23 01 34.6 19.5 V G96 – Mt. Lemmon Survey MPS 307451
2009 12 10.22514 04 48 54.36 +23 01 33.1 19.6 V G96 – Mt. Lemmon Survey MPS 307452
2009 12 10.23433 04 48 53.89 +23 01 32.2 19.7 V G96 – Mt. Lemmon Survey MPS 307452
2009 12 10.90708 04 48 18.39 +22 59 51.1 20.0 C 114 – Engelhardt Observatory, Zelenchukskaya Station MPS 307452
2009 12 10.91097 04 48 18.15 +22 59 50.0 20.0 C 114 – Engelhardt Observatory, Zelenchukskaya Station MPS 307452
2009 12 10.91487 04 48 17.92 +22 59 49.5 19.9 C 114 – Engelhardt Observatory, Zelenchukskaya Station MPS 307452
2009 12 10.91877 04 48 17.74 +22 59 48.3 19.7 C 114 – Engelhardt Observatory, Zelenchukskaya Station MPS 307452
2009 12 10.92267 04 48 17.47 +22 59 48.1 20.0 C 114 – Engelhardt Observatory, Zelenchukskaya Station MPS 307452
2010 01 15.26084 04 26 13.09 +21 42 05.2 19.6 V G96 – Mt. Lemmon Survey MPS 311244
2010 01 15.26737 04 26 12.98 +21 42 04.6 19.9 V G96 – Mt. Lemmon Survey MPS 311244
2010 01 15.27397 04 26 12.91 +21 42 04.2 19.8 V G96 – Mt. Lemmon Survey MPS 311244
2010 01 15.28059 04 26 12.84 +21 42 04.3 19.7 V G96 – Mt. Lemmon Survey MPS 311244
2011 01 13.37102 09 27 04.60 +10 34 37.4 20.9 V 691 – Steward Observatory, Kitt Peak-Spacewatch MPS 366719
2011 01 13.38872 09 27 03.95 +10 34 39.1 20.8 V 691 – Steward Observatory, Kitt Peak-Spacewatch MPS 366719
2011 01 13.40643 09 27 03.29 +10 34 41.1 20.8 V 691 – Steward Observatory, Kitt Peak-Spacewatch MPS 366719
2011 01 14.26271 09 26 31.73 +10 36 14.0 21.2 V 291 – LPL/Spacewatch II MPS 366719
2011 01 14.26660 09 26 31.58 +10 36 14.3 21.1 V 291 – LPL/Spacewatch II MPS 366719
2011 01 14.27032 09 26 31.43 +10 36 14.8 21.1 V 291 – LPL/Spacewatch II MPS 366719
2011 01 28.33072 09 16 37.34 +11 09 21.8 20.8 V G96 – Mt. Lemmon Survey MPS 368431
2011 01 28.33812 09 16 36.98 +11 09 23.7 20.4 V G96 – Mt. Lemmon Survey MPS 368431
2011 01 28.34565 09 16 36.62 +11 09 24.5 20.5 V G96 – Mt. Lemmon Survey MPS 368431
2011 01 28.35311 09 16 36.30 +11 09 25.7 20.6 V G96 – Mt. Lemmon Survey MPS 368431
2011 01 30.34391 09 15 04.224 +11 15 05.82 20.8 w F51 – Pan-STARRS 1, Haleakala MPS 379597
2011 01 30.35848 09 15 03.525 +11 15 08.38 20.9 w F51 – Pan-STARRS 1, Haleakala MPS 379597
2011 01 30.37410 09 15 02.779 +11 15 11.11 21.1 w F51 – Pan-STARRS 1, Haleakala MPS 379597
2011 01 30.38863 09 15 02.083 +11 15 13.69 21.0 w F51 – Pan-STARRS 1, Haleakala MPS 379597
2011 02 12.39839 09 04 49.23 +11 55 13.6 21.0 V 291 – LPL/Spacewatch II MPS 371346
2011 02 12.40384 09 04 48.97 +11 55 14.3 21.2 V 291 – LPL/Spacewatch II MPS 371346
2011 02 12.40769 09 04 48.79 +11 55 15.1 21.3 V 291 – LPL/Spacewatch II MPS 371346
2012 03 01.42284 13 17 51.43 -13 30 02.8 21.2 V G96 – Mt. Lemmon Survey MPS 415923
2012 03 01.43115 13 17 51.18 -13 30 01.6 21.7 V G96 – Mt. Lemmon Survey MPS 415923
2012 03 01.43947 13 17 51.03 -13 30 01.6 20.9 V G96 – Mt. Lemmon Survey MPS 415923
2012 03 01.44780 13 17 50.82 -13 30 01.2 21.0 V G96 – Mt. Lemmon Survey MPS 415923
